MMS 4

Last updated on Dec. 2, 2020, 6:18 a.m. UTC

1 40485U 15011D   20331.40625000 -.00000024  00000-0  00000-0 0  9992
2 40485  31.4635 119.2196 8490206  26.0712 193.4590  0.28569986 11669
UTC
Height (km)
Latitude
Longitude
Inclination
Orbital Period
UTC large
Height (km)
Speed (km/s)
/
Latitude / Longitude
Inclination (degrees)
Orbital Period (minutes)
Azimuth
Elevation
Range (km)
Doppler Factor
iOS Compass Heading
iOS Angle

Next 30 passes for location: Hong Kong

Rise time Rise Azimuth (degrees) Set time Set Azimuth (degrees) Duration Max altitude (degrees)

No matching passes for this satellites